Location: Ferchesar
(52.6477°N, 12.4298°E)
Time: 02:00:46
(UTC+01:00)

Transit 2A - Pass Details

Date: 14 December 2021
Orbit: 591 x 967 km, 66.7° (Epoch: 17 January)

Event Time Altitude Azimuth Distance (km) Brightness Sun altitude
Exits shadow 06:07:58 22° 318° (NW) 1,965 7.6 -17.8°
Maximum altitude 06:12:16 81° 234° (SW) 971 6.4 -17.2°
Drops below altitude 10° 06:18:25 10° 148° (SSE) 2,601 9.5 -16.3°
Sets 06:20:50 0° 147° (SSE) 3,497 10.2 -15.9°
